Location: Unspecified
(0.0000°N, 0.0000°E)
Time: 07:14:39
(UTC+00:00)

N. Korean satellite - Pass Details

Date: 16 October 2019
Orbit: 455 x 508 km, 97.2° (Epoch: 14 October)

Event Time Altitude Azimuth Distance (km) Brightness Sun altitude
Rises 05:06:43 0° 26° (NNE) 2,563 10.5 -9.6°
Reaches altitude 10° 05:08:54 10° 36° (NE) 1,692 9.7 -9.1°
Maximum altitude 05:12:13 33° 101° (E) 859 8.7 -8.3°
Drops below altitude 10° 05:15:35 10° 166° (SSE) 1,718 9.7 -7.4°
Sets 05:17:49 0° 176° (S) 2,608 10.4 -6.9°
